Hauptseite
METAR-TAF:

METAR-TAF

Flughäfen :

Militärflugplatz Payerne

Payerne, Schweiz

Breite: 46-49N, Länge: 006-57E, Höhe: 490 m

Beobachtung

Neuester Wetterbericht von vor 20 Minuten, um 20:50 UTC
Wind 4 kt aus Südwest
Temperatur 0°C
Luftfeuchtigkeit 80%
Luftdruck 1012 hPa
Sichtweite 10 km oder mehr
Leicht bewölkt in der Höhe von 23000 ft

METAR: LSMP 162050Z 23004KT 9999 FEW230 00/M03 Q1012 RMK BLU+

Zeit: 22:10 (21:10 UTC)


TAF: fehlend

Wetterbeobachtungen und Prognosen von mehr als 4000 Flughäfen (METAR und TAF Bericht).

Die verfügbaren Stationen werden durch gelbe und rote Markierungen auf der Karte dargestellt.

Führen Sie die Maus auf sie, um den Namen der Station zu sehen.

Darauf klicken, um die Beobachtung von Wetterbeobachtungen und Prognosen zu sehen.

Um die Karte zu ändern : klicken Sie auf den grünen Tasten mit einem schwarzen Kreuz Zum Vergrößern, auf den grünen Button mit einem Gedankenstrich zu verkleinern, oder auf die grünen Pfeile für benachbarte Karten.


METAR-TAF: